Home   Weather   Youngstown   Past weeks

Flag for USA Past Weather in Youngstown, Ohio, USA — Yesterday and Last 2 Weeks

Now
39 °F

Fog.


Feels Like: 32 °F
Forecast: 37 / 56 °F
Wind: 10 mph from Southeast

Location: Youngstown-Warren Regional Airport

Current Time: Jan 17, 2017 at 4:02:30 am

Latest Report: Jan 17, 2017 at 2:51 am


Visibility: 5 mi

Pressure: 30.10 "Hg

Humidity: 93%

Dew Point: 37 °F

Location of YoungstownLocation

Past Weather in Youngstown — Graph

°F

Youngstown Temperature Yesterday

Maximum temperature yesterday: 38 °F (at 11:51 pm)
Minimum temperature yesterday: 18 °F (at 3:51 am)
Average temperature yesterday: 31 °F

High & Low Weather Summary for the Past Weeks

 TemperatureHumidityPressure
High61 °F (Jan 12, 12:51 pm)97% (Jan 2, 1:51 pm)30.74 "Hg (Jan 2, 1:51 pm)
Low0 °F (Jan 6, 7:51 am)40% (Jan 16, 12:51 pm)29.52 "Hg (Jan 3, 8:09 pm)
Average29 °F77%30.17 "Hg
* Reported Jan 2 2:51 am — Jan 17 2:51 am, Youngstown, Weather by CustomWeather, © 2017

Note: Actual official high and low records may vary slightly from our data, if they occured in-between our weather recording intervals... More about our weather records

Advertising

Youngstown Weather History for the Previous 24 Hours

Scroll right to see more
 ConditionsComfort  
Time TempWeatherWind HumidityBarometerVisibility
2:51 am
Tue, Jan 17
39 °FFog.10 mph93%30.10 "Hg5 mi
2:14 am39 °FLight rain. Mostly cloudy.10 mph89%30.08 "Hg8 mi
1:53 am39 °FMostly cloudy.10 mph89%30.08 "Hg10 mi
12:51 am39 °FOvercast.9 mph86%30.13 "Hg10 mi
11:51 pm
Mon, Jan 16
38 °FOvercast.8 mph86%30.16 "Hg10 mi
10:51 pm37 °FOvercast.8 mph86%30.19 "Hg10 mi
9:51 pm36 °FOvercast.7 mph89%30.22 "Hg10 mi
8:51 pm36 °FOvercast.6 mph85%30.24 "Hg10 mi
8:29 pm36 °FLight rain. Overcast.8 mph82%30.19 "Hg6 mi
7:51 pm37 °FOvercast.8 mph73%30.24 "Hg10 mi
6:51 pm36 °FOvercast.9 mph67%30.25 "Hg10 mi
5:51 pm35 °FMostly cloudy.6 mph72%30.27 "Hg10 mi
5:12 pm34 °FMostly cloudy.6 mph79%30.24 "Hg10 mi
4:51 pm34 °FMostly cloudy.5 mph79%30.29 "Hg10 mi
3:51 pm37 °FLight rain. Mostly cloudy.No wind54%30.30 "Hg4 mi
2:51 pm37 °FMostly cloudy.No wind42%30.29 "Hg10 mi
1:51 pm37 °FOvercast.5 mph42%30.31 "Hg10 mi
12:51 pm36 °FOvercast.5 mph40%30.32 "Hg10 mi
11:51 am35 °FOvercast.6 mph48%30.36 "Hg10 mi
10:51 am31 °FMostly cloudy.6 mph69%30.38 "Hg10 mi
9:51 am29 °FMostly cloudy.3 mph75%30.39 "Hg10 mi
8:51 am28 °FMostly cloudy.6 mph75%30.38 "Hg10 mi
7:51 am25 °FMostly cloudy.6 mph81%30.38 "Hg10 mi
6:51 am21 °FMostly cloudy.6 mph85%30.39 "Hg9 mi
5:51 am20 °FPassing clouds.7 mph85%30.38 "Hg8 mi
4:51 am19 °FPassing clouds.7 mph85%30.38 "Hg8 mi
Weather by CustomWeather, © 2017

See weather overviewHow to use our weather pages